Date String (YYYY-MM-DD hh:mm:ss) UTC,Instrument flags,absolute air pressure of the measurement (hPa),sample flow rate (lpm),inlet stack bypass flow (lpm),air temperature of the measurement (°C),ambient temperature measured by the external sensor (°C),aerosol sample conditioner tube jacket temperature (°C),OPC LED temperature (°C),internal box temperature (°C),relative humidity of the measurement (%),span deviation,mass concentration of particles derived from Lorenz-Mie calculation of OPC scattering (μg/m³),mass concentration of particles derived from Lorenz-Mie calculation of OPC scattering (μg/m³),mass concentration of particles derived from Lorenz-Mie calculation of OPC scattering (μg/m³)
DateTimeUTC,F1_M11,P_M11,Q1_M11,Q2_M11,T1_M11,T2_M11,T3_M11,T4_M11,T5_M11,U1_M11,ZSPAN_M11,X0_M11,X2_M11,X1_M11
2023-08-08 05:00:00,SystemResetWarning,0833.9,5.00,000.00,029.6,028.5,000.0,038.1,031.3,30.9,0000.0,0015.15,0006.04,0005.13
2023-08-08 05:01:00,SystemResetWarning,0833.8,5.00,000.00,029.6,028.3,000.0,038.1,031.3,30.9,-000.3,0015.39,0006.03,0005.14
2023-08-08 05:02:00,SystemResetWarning,0833.8,4.99,000.00,029.6,026.5,000.0,038.0,031.1,30.8,-000.7,0015.16,0006.01,0005.13
2023-08-08 05:03:00,SystemResetWarning,0833.8,5.01,000.00,029.5,025.3,000.0,037.9,030.8,30.9,-001.0,0015.50,0006.03,0005.12
2023-08-08 05:04:00,SystemResetWarning,0833.8,5.01,000.00,029.4,025.1,000.0,037.9,030.5,31.0,-000.6,0015.05,0006.04,0005.13
2023-08-08 05:05:00,SystemResetWarning,0833.8,5.00,000.00,029.3,025.4,000.0,037.9,030.4,31.2,-000.6,0014.51,0006.06,0005.13
2023-08-08 05:06:00,SystemResetWarning,0833.8,5.00,000.00,029.2,025.8,000.0,037.9,030.5,31.3,-000.3,0014.62,0006.07,0005.14
2023-08-08 05:07:00,SystemResetWarning,0833.8,5.00,000.00,029.2,026.2,000.0,037.9,030.6,31.3,0000.4,0014.75,0006.07,0005.15
2023-08-08 05:08:00,SystemResetWarning,0833.8,5.00,000.00,029.2,026.6,000.0,037.9,030.7,31.2,0000.5,0014.62,0006.04,0005.15
2023-08-08 05:09:00,SystemResetWarning,0833.8,4.99,000.00,029.2,026.9,000.0,037.9,030.7,31.3,0000.9,0013.64,0006.05,0005.15
2023-08-08 05:10:00,SystemResetWarning,0833.8,4.99,000.00,029.2,027.1,000.0,037.9,030.8,31.5,0000.3,0014.20,0006.09,0005.16
2023-08-08 05:11:00,SystemResetWarning,0833.9,5.00,000.00,029.2,027.4,000.0,037.9,030.8,31.6,0000.0,0013.95,0006.11,0005.15
2023-08-08 05:12:00,SystemResetWarning,0833.9,5.01,000.00,029.2,027.5,000.0,037.9,030.9,31.5,-000.3,0013.80,0006.11,0005.15
2023-08-08 05:13:00,SystemResetWarning,0833.8,5.00,000.00,029.3,027.6,000.0,037.9,030.9,31.5,0000.3,0015.26,0006.12,0005.15
2023-08-08 05:14:00,SystemResetWarning,0833.9,5.01,000.00,029.3,027.8,000.0,037.9,030.9,31.6,0000.6,0015.32,0006.16,0005.16
2023-08-08 05:15:00,SystemResetWarning,0833.9,5.00,000.00,029.3,027.8,000.0,037.9,031.0,31.8,-000.0,0015.16,0006.19,0005.17
2023-08-08 05:16:00,SystemResetWarning,0834.0,4.99,000.00,029.3,027.9,000.0,037.9,031.0,31.7,0000.0,0015.24,0006.23,0005.19
2023-08-08 05:17:00,SystemResetWarning,0833.9,4.99,000.00,029.3,028.0,000.0,037.9,031.0,31.6,0000.3,0014.74,0006.20,0005.20
2023-08-08 05:18:00,SystemResetWarning,0833.9,5.00,000.00,029.4,028.1,000.0,037.9,031.0,31.4,0000.3,0014.68,0006.22,0005.20
2023-08-08 05:19:00,SystemResetWarning,0833.8,5.00,000.00,029.4,028.1,000.0,038.0,031.1,31.2,0000.6,0014.75,0006.23,0005.20
2023-08-08 05:20:00,SystemResetWarning,0833.9,5.00,000.00,029.4,028.2,000.0,038.0,031.1,31.1,0000.7,0015.42,0006.23,0005.21
2023-08-08 05:21:00,SystemResetWarning,0833.8,5.00,000.00,029.4,028.2,000.0,038.0,031.1,31.0,0000.1,0016.08,0006.21,0005.20
2023-08-08 05:22:00,SystemResetWarning,0833.8,5.00,000.00,029.5,028.3,000.0,038.0,031.1,30.9,-000.1,0016.34,0006.23,0005.20
2023-08-08 05:23:00,SystemResetWarning,0833.8,5.01,000.00,029.5,028.3,000.0,038.0,031.1,30.8,0000.6,0016.98,0006.26,0005.21
2023-08-08 05:24:00,SystemResetWarning,0833.8,5.01,000.00,029.5,028.3,000.0,038.1,031.2,30.7,0000.2,0016.07,0006.29,0005.21
2023-08-08 05:25:00,SystemResetWarning,0833.8,4.99,000.00,029.5,028.3,000.0,038.1,031.2,30.7,-000.0,0014.99,0006.27,0005.21
2023-08-08 05:26:00,SystemResetWarning,0833.8,4.99,000.00,029.6,028.4,000.0,038.1,031.2,30.7,-000.2,0014.86,0006.25,0005.22
2023-08-08 05:27:00,SystemResetWarning,0833.8,5.00,000.00,029.6,028.4,000.0,038.1,031.2,30.6,-000.7,0014.42,0006.22,0005.21
2023-08-08 05:28:00,SystemResetWarning,0833.8,5.01,000.00,029.6,028.4,000.0,038.1,031.3,30.6,-000.5,0014.95,0006.23,0005.21
2023-08-08 05:29:00,SystemResetWarning,0833.8,5.01,000.00,029.6,028.4,000.0,038.2,031.3,30.5,-000.8,0015.67,0006.28,0005.21
2023-08-08 05:30:00,SystemResetWarning,0833.8,5.00,000.00,029.6,028.4,000.0,038.2,031.3,30.5,-001.2,0015.88,0006.33,0005.22
2023-08-08 05:31:00,SystemResetWarning,0833.8,4.99,000.00,029.7,028.5,000.0,038.2,031.3,30.6,-001.1,0015.22,0006.36,0005.23
2023-08-08 05:32:00,SystemResetWarning,0833.8,4.99,000.00,029.7,028.5,000.0,038.2,031.3,30.5,-001.2,0014.46,0006.38,0005.23
2023-08-08 05:33:00,SystemResetWarning,0833.8,5.02,000.00,029.7,028.5,000.0,038.2,031.3,30.5,-001.0,0013.98,0006.30,0005.23
2023-08-08 05:34:00,SystemResetWarning,0833.7,5.01,000.00,029.7,028.5,000.0,038.3,031.4,30.4,-001.3,0013.18,0006.28,0005.22
2023-08-08 05:35:00,SystemResetWarning,0833.7,4.98,000.00,029.7,027.7,000.0,038.2,031.3,30.4,-000.9,0013.20,0006.28,0005.24
2023-08-08 05:36:00,SystemResetWarning,0833.7,5.00,000.00,029.7,025.8,000.0,038.1,031.0,30.4,-000.6,0013.45,0006.29,0005.25
2023-08-08 05:37:00,SystemResetWarning,0833.7,5.01,000.00,029.6,025.1,000.0,038.0,030.7,30.5,-000.5,0014.27,0006.26,0005.23
2023-08-08 05:38:00,SystemResetWarning,0833.7,5.00,000.00,029.4,025.2,000.0,038.0,030.4,30.6,0000.3,0014.60,0006.27,0005.23
2023-08-08 05:39:00,SystemResetWarning,0833.6,5.01,000.00,029.3,025.6,000.0,038.0,030.5,30.7,0000.3,0014.08,0006.25,0005.22
2023-08-08 05:40:00,SystemResetWarning,0833.7,5.00,000.00,029.3,026.0,000.0,038.0,030.6,30.6,0000.3,0013.38,0006.19,0005.22
2023-08-08 05:41:00,SystemResetWarning,0833.7,5.00,000.00,029.3,026.4,000.0,038.0,030.7,30.3,0000.3,0012.91,0006.17,0005.23
2023-08-08 05:42:00,SystemResetWarning,0833.7,5.00,000.00,029.3,026.7,000.0,038.0,030.8,29.9,0000.3,0013.96,0006.18,0005.24
2023-08-08 05:43:00,SystemResetWarning,0833.7,5.01,000.00,029.3,027.0,000.0,038.0,030.8,29.8,0000.9,0014.03,0006.21,0005.24
2023-08-08 05:44:00,SystemResetWarning,0833.7,4.98,000.00,029.3,027.2,000.0,038.0,030.8,29.6,0001.8,0013.94,0006.21,0005.24
2023-08-08 05:45:00,SystemResetWarning,0833.7,4.99,000.00,029.3,027.4,000.0,038.0,030.8,29.4,0002.3,0013.96,0006.23,0005.24
2023-08-08 05:46:00,SystemResetWarning,0833.7,5.01,000.00,029.3,027.5,000.0,038.0,030.9,29.4,0002.6,0014.91,0006.21,0005.23
2023-08-08 05:47:00,SystemResetWarning,0833.7,5.02,000.00,029.3,027.7,000.0,038.0,030.9,29.4,0002.6,0014.82,0006.20,0005.22
2023-08-08 05:48:00,SystemResetWarning,0833.7,4.99,000.00,029.3,027.8,000.0,038.0,031.0,29.6,0002.6,0014.02,0006.23,0005.23
2023-08-08 05:49:00,SystemResetWarning,0833.7,4.99,000.00,029.3,027.9,000.0,038.0,031.0,29.5,0002.3,0013.87,0006.26,0005.24
2023-08-08 05:50:00,SystemResetWarning,0833.7,5.00,000.00,029.4,027.9,000.0,038.0,031.0,29.7,0002.0,0014.55,0006.29,0005.25
2023-08-08 05:51:00,SystemResetWarning,0833.7,5.00,000.00,029.4,028.0,000.0,038.0,031.0,29.9,0002.1,0014.73,0006.35,0005.27
2023-08-08 05:52:00,SystemResetWarning,0833.7,5.00,000.00,029.4,028.1,000.0,038.0,031.1,29.9,0002.0,0015.22,0006.35,0005.26
2023-08-08 05:53:00,SystemResetWarning,0833.7,5.00,000.00,029.4,028.1,000.0,038.0,031.1,29.7,0001.6,0014.45,0006.31,0005.26
2023-08-08 05:54:00,SystemResetWarning,0833.7,5.01,000.00,029.4,028.2,000.0,038.0,031.1,29.6,0001.2,0014.38,0006.28,0005.25
2023-08-08 05:55:00,SystemResetWarning,0833.7,5.01,000.00,029.5,028.2,000.0,038.1,031.1,29.5,-000.0,0014.07,0006.33,0005.25
2023-08-08 05:56:00,SystemResetWarning,0833.7,5.01,000.00,029.5,028.2,000.0,038.1,031.2,29.1,-000.5,0014.74,0006.33,0005.26
2023-08-08 05:57:00,SystemResetWarning,0833.7,4.99,000.00,029.5,028.3,000.0,038.1,031.2,28.9,-000.8,0014.55,0006.34,0005.27
2023-08-08 05:58:00,SystemResetWarning,0833.7,4.99,000.00,029.5,028.3,000.0,038.1,031.2,28.5,-000.8,0014.72,0006.36,0005.27
2023-08-08 05:59:00,SystemResetWarning,0833.6,5.00,000.00,029.6,028.3,000.0,038.1,031.2,28.2,-000.8,0015.14,0006.36,0005.27
